Annette Island, AK

1:27 AM AKDT on March 30, 2017 (GMT -0800)
Annette Island

Weather History for PANT - January, 2014

Change the Weather History Date:

Tuesday, January 7, 2014

  Actual Average Record
Temperature  
Mean Temperature 42 °F 37 °F  
Max Temperature 45 °F 41 °F 55 °F (2001)
Min Temperature 38 °F 32 °F 6 °F (1953)
Degree Days  
Heating Degree Days 23 28  
Month to date heating degree days 198 196  
Since 1 July heating degree days 2911 3107  
Cooling Degree Days 0    
Month to date cooling degree days 0  
Year to date cooling degree days 0  
Moisture  
Dew Point 38 °F    
Average Humidity 0    
Maximum Humidity 0    
Minimum Humidity 0    
Precipitation  
Precipitation 0.09 in 0.34 in 1.75 in (2000)
Month to date precipitation 2.48 2.48  
Year to date precipitation 2.48 2.48  
Snow  
Snow 0.00 in 0.30 in 9.80 in (1965)
Month to date snowfall 0.0 1.8  
Since 1 July snowfall 9.1 13.5  
Snow Depth 0.00 in    
Sea Level Pressure  
Sea Level Pressure 29.80 in    
Wind  
Wind Speed 9 mph (ESE)    
Max Wind Speed 16 mph    
Max Gust Speed 22 mph    
Visibility 9 miles    
Events Rain    
T = Trace of Precipitation, MM = Missing Value Source: NWS Daily Summary

Daily Weather History Graph

Daily Weather History Graph

Search for Another Location

Airport or City:

Trip Planner

Search our weather history database for the weather conditions in past years. The results will help you decide how hot, cold, wet, or windy it might be!

Date:

Astronomy

Jan. 07, 2014 Rise Set
Actual Time 8:08 AM AKST 3:37 PM AKST
Civil Twilight 7:24 AM AKST 4:21 PM AKST
Nautical Twilight 6:37 AM AKST 5:08 PM AKST
Astronomical Twilight 5:53 AM AKST 5:52 PM AKST
Moon 10:43 AM AKST (1/7) No Moon Set
Length of Visible Light 8h 56m
Length of Day
7h 28m
Waxing Crescent, 47% of the Moon is Illuminated
Jan 7
Waxing Crescent
Jan 7
First Quarter
Jan 15
Full
Jan 23
Last Quarter
Jan 30
New

Hourly Weather History & Observations

Time (AKST) Temp. Windchill Dew Point Humidity Pressure Visibility Wind Dir Wind Speed Gust Speed Precip Events Conditions
12:53 AM 43.0 °F 38.2 °F 33.1 °F 68% 29.90 in 10.0 mi East 8.1 mph - 0.01 in Rain Light Rain
1:53 AM 44.1 °F 38.6 °F 32.0 °F 63% 29.89 in 10.0 mi ESE 10.4 mph - 0.00 in   Overcast
2:53 AM 44.1 °F 41.5 °F 30.9 °F 60% 29.89 in 10.0 mi Variable 4.6 mph - N/A   Overcast
3:39 AM 44.1 °F 39.0 °F 32.0 °F 63% 29.87 in 10.0 mi SE 9.2 mph - 0.00 in Rain Light Rain
3:53 AM 43.0 °F 40.3 °F 33.1 °F 68% 29.87 in 10.0 mi ESE 4.6 mph - 0.00 in   Overcast
4:13 AM 44.1 °F 36.8 °F 30.0 °F 58% 29.85 in 10.0 mi ESE 16.1 mph 20.7 mph N/A   Overcast
4:41 AM 42.1 °F 36.1 °F 35.1 °F 76% 29.85 in 10.0 mi ESE 10.4 mph - 0.00 in Rain Light Rain
4:53 AM 41.0 °F 35.2 °F 36.0 °F 82% 29.86 in 9.0 mi ESE 9.2 mph 19.6 mph 0.00 in Rain Light Rain
5:53 AM 42.1 °F 37.1 °F 36.0 °F 79% 29.84 in 10.0 mi ESE 8.1 mph - 0.01 in   Overcast
6:26 AM 41.0 °F 34.3 °F 37.0 °F 86% 29.84 in 10.0 mi SE 11.5 mph - 0.01 in Rain Light Rain
6:53 AM 39.9 °F 32.9 °F 37.0 °F 89% 29.85 in 10.0 mi ESE 11.5 mph - 0.02 in Rain Light Rain
7:53 AM 39.0 °F 32.8 °F 37.9 °F 96% 29.84 in 7.0 mi ESE 9.2 mph - 0.02 in Rain Light Rain
8:02 AM 37.9 °F 30.9 °F 37.9 °F 100% 29.83 in 7.0 mi ESE 10.4 mph - 0.00 in Rain Light Rain
8:53 AM 39.0 °F 32.3 °F 37.9 °F 96% 29.85 in 10.0 mi SE 10.4 mph - 0.01 in   Overcast
9:04 AM 39.0 °F 32.3 °F 37.9 °F 96% 29.84 in 10.0 mi ESE 10.4 mph - N/A   Overcast
9:53 AM 39.0 °F 32.3 °F 37.9 °F 96% 29.85 in 10.0 mi ESE 10.4 mph - N/A   Overcast
10:53 AM 39.9 °F 32.9 °F 37.9 °F 93% 29.83 in 10.0 mi SE 11.5 mph 19.6 mph N/A   Overcast
11:14 AM 39.9 °F 33.4 °F 37.9 °F 93% 29.82 in 10.0 mi ESE 10.4 mph 19.6 mph N/A   Overcast
11:53 AM 39.9 °F 33.4 °F 37.9 °F 93% 29.82 in 10.0 mi ESE 10.4 mph - N/A   Overcast
12:16 PM 39.9 °F 33.4 °F 37.9 °F 93% 29.81 in 10.0 mi ESE 10.4 mph - N/A   Overcast
12:53 PM 39.9 °F 34.5 °F 37.9 °F 93% 29.81 in 10.0 mi ESE 8.1 mph - N/A   Overcast
1:02 PM 39.9 °F 34.5 °F 37.9 °F 93% 29.80 in 10.0 mi ESE 8.1 mph - N/A   Overcast
1:39 PM 39.9 °F 34.5 °F 39.0 °F 97% 29.79 in 9.0 mi ESE 8.1 mph - 0.00 in Rain Light Rain
1:53 PM 39.9 °F 33.9 °F 39.0 °F 97% 29.80 in 10.0 mi ESE 9.2 mph - 0.00 in   Overcast
2:02 PM 39.9 °F 33.9 °F 39.0 °F 97% 29.79 in 10.0 mi SE 9.2 mph - N/A   Overcast
2:12 PM 39.9 °F 34.5 °F 39.0 °F 97% 29.79 in 8.0 mi ESE 8.1 mph - N/A   Overcast
2:27 PM 39.9 °F 36.7 °F 39.9 °F 100% 29.79 in 6.0 mi ESE 4.6 mph - 0.00 in Rain Light Rain
2:36 PM 39.9 °F 35.8 °F 39.9 °F 100% 29.79 in 8.0 mi ESE 5.8 mph - 0.00 in Rain Light Rain
2:53 PM 39.9 °F 34.5 °F 39.9 °F 100% 29.78 in 7.0 mi ESE 8.1 mph - 0.01 in Rain Light Rain
3:03 PM 39.9 °F 35.8 °F 39.9 °F 100% 29.78 in 10.0 mi ESE 5.8 mph - 0.00 in Rain Light Rain
3:10 PM 39.9 °F 35.1 °F 39.9 °F 100% 29.78 in 10.0 mi ESE 6.9 mph - 0.01 in   Overcast
3:53 PM 39.9 °F 34.5 °F 39.0 °F 97% 29.78 in 10.0 mi SE 8.1 mph - 0.01 in   Overcast
4:02 PM 39.9 °F 33.9 °F 39.0 °F 97% 29.77 in 10.0 mi SE 9.2 mph - N/A   Overcast
4:30 PM 39.9 °F 33.4 °F 39.9 °F 100% 29.77 in 9.0 mi SE 10.4 mph - N/A   Overcast
4:53 PM 39.9 °F 33.4 °F 39.9 °F 100% 29.78 in 10.0 mi ESE 10.4 mph - 0.00 in Rain Light Rain
5:04 PM 39.9 °F 34.5 °F 39.9 °F 100% 29.76 in 10.0 mi ESE 8.1 mph - 0.00 in Rain Light Rain
5:11 PM 39.9 °F 33.4 °F 39.9 °F 100% 29.76 in 10.0 mi ESE 10.4 mph - 0.00 in   Overcast
5:53 PM 39.9 °F 34.5 °F 39.9 °F 100% 29.75 in 10.0 mi ESE 8.1 mph - 0.00 in   Overcast
6:53 PM 39.9 °F 33.9 °F 39.9 °F 100% 29.74 in 10.0 mi ESE 9.2 mph - N/A   Overcast
7:53 PM 39.9 °F 33.9 °F 39.9 °F 100% 29.73 in 6.0 mi ESE 9.2 mph - N/A   Overcast
8:53 PM 41.0 °F 34.7 °F 39.9 °F 96% 29.71 in 8.0 mi ESE 10.4 mph - N/A   Overcast
9:53 PM 39.9 °F 33.4 °F 39.9 °F 100% 29.70 in 6.0 mi ESE 10.4 mph - N/A   Overcast
10:53 PM 41.0 °F 34.3 °F 39.9 °F 96% 29.68 in 8.0 mi ESE 11.5 mph - 0.00 in   Overcast
11:03 PM 41.0 °F 34.7 °F 39.9 °F 96% 29.66 in 10.0 mi ESE 10.4 mph - N/A   Overcast
11:53 PM 41.0 °F 34.3 °F 39.9 °F 96% 29.65 in 7.0 mi ESE 11.5 mph - 0.00 in Rain Light Rain